| time (UTC) | temp F | wind direction | speed knots | gust knots | rain 1hr in | rain 24hr in | rain mn in | humidity % | barometer mb |
| 20260904031642 | 70 | 177 | 0.0 | 0.0 | 0.00 | 0.41 | 0.41 | 95 | 1014.1 |
| 20260904031138 | 70 | 183 | 0.0 | 0.0 | 0.00 | 0.41 | 0.41 | 95 | 1014.2 |
| 20260904030634 | 70 | 183 | 0.0 | 0.0 | 0.00 | 0.41 | 0.41 | 95 | 1014.2 |
| 20260904030128 | 70 | 151 | 0.0 | 0.0 | 0.00 | 0.41 | 0.41 | 95 | 1014.1 |
| 20260904025624 | 70 | 173 | 0.0 | 0.0 | 0.00 | 0.41 | 0.41 | 95 | 1014.3 |
| 20260904025119 | 70 | 156 | 0.0 | 0.0 | 0.00 | 0.41 | 0.41 | 95 | 1014.2 |
| 20260904024614 | 70 | 159 | 0.0 | 0.0 | 0.00 | 0.41 | 0.41 | 95 | 1014.1 |
| 20260904024110 | 70 | 174 | 0.0 | 0.0 | 0.00 | 0.41 | 0.41 | 95 | 1014.0 |
| 20260904023606 | 70 | 182 | 0.0 | 0.0 | 0.00 | 0.41 | 0.41 | 95 | 1014.3 |
| 20260904023102 | 70 | 182 | 0.0 | 0.0 | 0.00 | 0.41 | 0.41 | 95 | 1014.5 |
| 20260904022602 | 70 | 182 | 0.0 | 0.0 | 0.00 | 0.41 | 0.41 | 95 | 1014.3 |
| 20260904022059 | 70 | 182 | 0.0 | 0.0 | 0.00 | 0.41 | 0.41 | 95 | 1014.3 |
| 20260904021554 | 70 | 193 | 0.0 | 0.0 | 0.00 | 0.41 | 0.41 | 95 | 1014.4 |
| 20260904021049 | 70 | 193 | 0.0 | 0.0 | 0.05 | 0.41 | 0.41 | 95 | 1014.3 |
| 20260904020544 | 70 | 204 | 0.0 | 0.0 | 0.05 | 0.41 | 0.41 | 95 | 1014.8 |
| 20260904020039 | 70 | 188 | 0.0 | 0.0 | 0.00 | 0.40 | 0.40 | 95 | 1014.6 |
| 20260904015533 | 70 | 190 | 0.0 | 0.0 | 0.00 | 0.40 | 0.40 | 95 | 1014.7 |
| 20260904015033 | 70 | 191 | 0.0 | 0.0 | 0.00 | 0.40 | 0.40 | 95 | 1014.8 |
| 20260904014526 | 70 | 191 | 0.0 | 0.0 | 0.00 | 0.40 | 0.40 | 95 | 1014.6 |
| 20260904014022 | 70 | 189 | 0.0 | 0.0 | 0.00 | 0.40 | 0.40 | 95 | 1014.6 |
| 20260904013518 | 70 | 190 | 0.0 | 0.0 | 0.00 | 0.40 | 0.40 | 95 | 1014.8 |
| 20260904013015 | 70 | 186 | 0.0 | 0.0 | 0.00 | 0.40 | 0.40 | 95 | 1014.6 |
| 20260904012514 | 70 | 186 | 0.0 | 0.0 | 0.00 | 0.40 | 0.40 | 95 | 1014.7 |
| 20260904012009 | 70 | 190 | 0.0 | 0.0 | 0.00 | 0.40 | 0.40 | 95 | 1014.6 |
| 20260904011503 | 70 | 186 | 0.0 | 0.0 | 0.00 | 0.40 | 0.40 | 95 | 1014.9 |
| 20260904010959 | 70 | 189 | 0.0 | 0.0 | 0.00 | 0.40 | 0.40 | 95 | 1014.8 |
| 20260904010454 | 70 | 186 | 0.0 | 0.0 | 0.00 | 0.40 | 0.40 | 95 | 1014.8 |
| 20260904005949 | 70 | 189 | 0.0 | 0.0 | 0.00 | 0.40 | 0.40 | 95 | 1014.8 |
| 20260904005445 | 70 | 189 | 0.0 | 0.0 | 0.00 | 0.40 | 0.40 | 95 | 1014.7 |
| 20260904004939 | 70 | 191 | 0.0 | 0.0 | 0.00 | 0.40 | 0.40 | 95 | 1014.8 |
| 20260904004436 | 70 | 186 | 0.0 | 0.0 | 0.00 | 0.40 | 0.40 | 95 | 1014.6 |
| 20260904003936 | 70 | 198 | 0.0 | 0.0 | 0.00 | 0.40 | 0.40 | 95 | 1014.5 |
| 20260904003432 | 70 | 198 | 0.0 | 0.0 | 0.00 | 0.40 | 0.40 | 95 | 1014.4 |
| 20260904002927 | 70 | 214 | 0.0 | 0.0 | 0.00 | 0.40 | 0.40 | 95 | 1014.4 |
| 20260904002423 | 70 | 197 | 0.0 | 0.0 | 0.00 | 0.40 | 0.40 | 95 | 1014.5 |
| 20260904001922 | 70 | 196 | 0.0 | 0.0 | 0.00 | 0.40 | 0.40 | 95 | 1014.3 |
| 20260904001418 | 70 | 196 | 0.0 | 0.0 | 0.00 | 0.40 | 0.40 | 95 | 1014.3 |
| 20260904000912 | 70 | 196 | 0.0 | 0.0 | 0.00 | 0.40 | 0.40 | 95 | 1014.0 |
| 20260904000412 | 70 | 110 | 1.7 | 1.7 | 0.00 | 0.40 | 0.40 | 95 | 1014.4 |
| 20260903235907 | 70 | 164 | 0.0 | 0.0 | 0.00 | 0.40 | 0.40 | 95 | 1014.2 |
| 20260903235403 | 71 | 180 | 0.0 | 0.0 | 0.00 | 0.40 | 0.40 | 95 | 1014.2 |
| 20260903234902 | 70 | 180 | 0.0 | 0.0 | 0.00 | 0.40 | 0.40 | 95 | 1014.2 |
| 20260903234358 | 71 | 181 | 0.0 | 0.0 | 0.00 | 0.40 | 0.40 | 95 | 1014.2 |
| 20260903233854 | 71 | 191 | 0.0 | 0.0 | 0.00 | 0.40 | 0.40 | 95 | 1014.3 |
| 20260903233350 | 71 | 190 | 0.0 | 0.0 | 0.00 | 0.40 | 0.40 | 95 | 1014.4 |
| 20260903232849 | 71 | 199 | 0.0 | 0.0 | 0.00 | 0.40 | 0.40 | 95 | 1014.2 |
| 20260903232345 | 71 | 190 | 0.0 | 0.0 | 0.00 | 0.40 | 0.40 | 95 | 1014.4 |
| 20260903231844 | 72 | 190 | 0.0 | 0.0 | 0.00 | 0.40 | 0.40 | 95 | 1014.4 |
| 20260903231340 | 72 | 199 | 0.0 | 0.0 | 0.00 | 0.40 | 0.40 | 94 | 1014.3 |
| 20260903230835 | 72 | 199 | 0.0 | 0.0 | 0.00 | 0.40 | 0.40 | 94 | 1014.3 |
| 20260903230330 | 72 | 185 | 0.0 | 0.0 | 0.00 | 0.40 | 0.40 | 93 | 1014.3 |
| 20260903225826 | 72 | 184 | 0.0 | 0.0 | 0.00 | 0.40 | 0.40 | 93 | 1014.1 |
| 20260903225322 | 72 | 184 | 0.0 | 0.0 | 0.00 | 0.40 | 0.40 | 92 | 1014.2 |
| 20260903224818 | 73 | 194 | 0.9 | 0.9 | 0.00 | 0.40 | 0.40 | 91 | 1014.2 |
| 20260903224314 | 73 | 128 | 0.9 | 0.9 | 0.07 | 0.40 | 0.40 | 90 | 1014.0 |
| 20260903223810 | 73 | 132 | 0.9 | 0.9 | 0.73 | 0.40 | 0.40 | 89 | 1013.9 |
| 20260903223308 | 75 | 254 | 4.3 | 6.1 | 0.71 | 0.39 | 0.39 | 87 | 1014.1 |
| 20260903222803 | 77 | 308 | 2.6 | 4.3 | 0.05 | 0.28 | 0.28 | 85 | 1014.0 |
| 20260903222305 | 80 | 11 | 1.7 | 1.7 | 0.00 | 0.27 | 0.27 | 81 | 1013.6 |
| 20260903221757 | 80 | 202 | 0.0 | 0.9 | 0.00 | 0.27 | 0.27 | 78 | 1013.5 |
| 20260903221256 | 80 | 202 | 0.0 | 0.0 | 0.00 | 0.27 | 0.27 | 77 | 1013.6 |
| 20260903220754 | 81 | 176 | 0.9 | 0.9 | 0.00 | 0.27 | 0.27 | 76 | 1013.7 |
| 20260903220249 | 82 | 176 | 0.0 | 0.0 | 0.00 | 0.27 | 0.27 | 75 | 1013.5 |
| 20260903215742 | 82 | 176 | 0.0 | 0.0 | 0.00 | 0.27 | 0.27 | 74 | 1013.8 |
| 20260903215238 | 82 | 168 | 0.0 | 0.0 | 0.00 | 0.27 | 0.27 | 75 | 1013.7 |
| 20260903214736 | 82 | 143 | 0.9 | 0.9 | 0.00 | 0.27 | 0.27 | 74 | 1013.6 |
| 20260903214232 | 83 | 198 | 0.0 | 0.0 | 0.00 | 0.27 | 0.27 | 74 | 1013.5 |
| 20260903213726 | 82 | 200 | 0.0 | 0.0 | 0.00 | 0.27 | 0.27 | 73 | 1013.8 |
| 20260903213222 | 82 | 194 | 0.9 | 0.9 | 0.00 | 0.27 | 0.27 | 73 | 1013.7 |
| 20260903212718 | 81 | 196 | 0.9 | 0.9 | 0.00 | 0.27 | 0.27 | 74 | 1013.5 |
| 20260903212214 | 81 | 216 | 1.7 | 1.7 | 0.00 | 0.27 | 0.27 | 74 | 1013.8 |
| 20260903211707 | 81 | 207 | 0.9 | 0.9 | 0.00 | 0.27 | 0.27 | 74 | 1013.7 |
| 20260903211204 | 81 | 183 | 0.0 | 0.0 | 0.00 | 0.27 | 0.27 | 76 | 1013.7 |
| 20260903210700 | 81 | 215 | 0.9 | 1.7 | 0.00 | 0.27 | 0.27 | 76 | 1013.6 |
| 20260903210156 | 80 | 167 | 0.9 | 0.9 | 0.00 | 0.27 | 0.27 | 77 | 1014.0 |
| 20260903205655 | 80 | 109 | 0.9 | 0.9 | 0.00 | 0.27 | 0.27 | 76 | 1014.0 |
| 20260903205154 | 81 | 196 | 0.0 | 0.9 | 0.00 | 0.27 | 0.27 | 76 | 1013.8 |
| 20260903204650 | 80 | 255 | 1.7 | 1.7 | 0.00 | 0.27 | 0.27 | 76 | 1014.1 |
| 20260903204146 | 80 | 203 | 0.0 | 0.9 | 0.00 | 0.27 | 0.27 | 76 | 1014.2 |
| 20260903203641 | 80 | 248 | 1.7 | 1.7 | 0.00 | 0.27 | 0.27 | 74 | 1014.1 |
| 20260903203136 | 80 | 173 | 0.9 | 0.9 | 0.00 | 0.27 | 0.27 | 75 | 1014.1 |
| 20260903202631 | 81 | 316 | 2.6 | 2.6 | 0.00 | 0.27 | 0.27 | 74 | 1014.1 |
| 20260903202126 | 81 | 227 | 0.9 | 1.7 | 0.00 | 0.27 | 0.27 | 73 | 1014.0 |
| 20260903201621 | 82 | 184 | 0.9 | 0.9 | 0.00 | 0.27 | 0.27 | 72 | 1014.1 |
| 20260903201120 | 82 | 316 | 2.6 | 4.3 | 0.00 | 0.27 | 0.27 | 72 | 1014.2 |
| 20260903200615 | 82 | 355 | 3.5 | 5.2 | 0.00 | 0.27 | 0.27 | 71 | 1014.2 |
| 20260903200110 | 82 | 313 | 2.6 | 2.6 | 0.00 | 0.27 | 0.27 | 72 | 1014.3 |
| 20260903195606 | 82 | 186 | 0.0 | 0.0 | 0.00 | 0.27 | 0.27 | 72 | 1014.2 |
| 20260903195102 | 81 | 216 | 1.7 | 1.7 | 0.00 | 0.27 | 0.27 | 73 | 1014.1 |
| 20260903194557 | 80 | 203 | 0.0 | 0.0 | 0.00 | 0.27 | 0.27 | 77 | 1013.9 |
| 20260903194052 | 80 | 171 | 0.0 | 0.0 | 0.00 | 0.27 | 0.27 | 76 | 1014.0 |
| 20260903193548 | 80 | 146 | 0.0 | 0.0 | 0.00 | 0.27 | 0.27 | 76 | 1014.1 |
| 20260903193043 | 80 | 14 | 2.6 | 4.3 | 0.00 | 0.27 | 0.27 | 75 | 1014.3 |
| 20260903192540 | 81 | 89 | 1.7 | 2.6 | 0.00 | 0.27 | 0.27 | 74 | 1014.3 |
| 20260903192034 | 83 | 218 | 0.9 | 0.9 | 0.00 | 0.27 | 0.27 | 72 | 1013.9 |
| 20260903191531 | 82 | 255 | 0.9 | 0.9 | 0.00 | 0.27 | 0.27 | 72 | 1014.3 |
| 20260903191025 | 82 | 232 | 0.9 | 1.7 | 0.00 | 0.27 | 0.27 | 73 | 1014.5 |
| 20260903190525 | 82 | 305 | 1.7 | 1.7 | 0.00 | 0.27 | 0.27 | 71 | 1014.5 |
| 20260903190024 | 83 | 289 | 2.6 | 2.6 | 0.00 | 0.27 | 0.27 | 69 | 1014.5 |
| 20260903185520 | 82 | 229 | 0.9 | 1.7 | 0.00 | 0.27 | 0.27 | 71 | 1014.5 |
| 20260903185015 | 82 | 286 | 2.6 | 4.3 | 0.00 | 0.27 | 0.27 | 72 | 1014.7 |
| 20260903184506 | 82 | 288 | 2.6 | 2.6 | 0.00 | 0.27 | 0.27 | 72 | 1014.6 |
| 20260903184006 | 82 | 242 | 2.6 | 2.6 | 0.00 | 0.27 | 0.27 | 72 | 1014.6 |
| 20260903183500 | 81 | 347 | 1.7 | 1.7 | 0.00 | 0.27 | 0.27 | 74 | 1014.9 |
| 20260903182959 | 81 | 242 | 1.7 | 1.7 | 0.00 | 0.27 | 0.27 | 75 | 1014.7 |
| 20260903182458 | 81 | 225 | 0.9 | 1.7 | 0.00 | 0.27 | 0.27 | 77 | 1014.9 |
| 20260903181954 | 80 | 196 | 0.9 | 1.7 | 0.00 | 0.27 | 0.27 | 76 | 1015.0 |
| 20260903181447 | 80 | 303 | 2.6 | 2.6 | 0.00 | 0.27 | 0.27 | 75 | 1014.8 |
| 20260903180942 | 79 | 271 | 2.6 | 2.6 | 0.00 | 0.27 | 0.27 | 77 | 1014.9 |
| 20260903180437 | 79 | 194 | 0.9 | 0.9 | 0.00 | 0.27 | 0.27 | 79 | 1014.9 |
| 20260903175936 | 79 | 195 | 1.7 | 1.7 | 0.00 | 0.27 | 0.27 | 77 | 1014.9 |
| 20260903175431 | 80 | 129 | 0.9 | 0.9 | 0.00 | 0.27 | 0.27 | 77 | 1014.9 |
| 20260903174925 | 80 | 158 | 0.9 | 0.9 | 0.00 | 0.27 | 0.27 | 75 | 1015.1 |
| 20260903174421 | 81 | 214 | 1.7 | 1.7 | 0.00 | 0.27 | 0.27 | 74 | 1015.0 |
| 20260903173920 | 82 | 202 | 0.9 | 0.9 | 0.00 | 0.27 | 0.27 | 73 | 1014.9 |
| 20260903173420 | 81 | 142 | 1.7 | 2.6 | 0.00 | 0.27 | 0.27 | 76 | 1014.9 |
| 20260903172916 | 80 | 253 | 1.7 | 2.6 | 0.00 | 0.27 | 0.27 | 75 | 1015.1 |
| 20260903172416 | 81 | 311 | 3.5 | 4.3 | 0.00 | 0.27 | 0.27 | 75 | 1015.1 |
| 20260903171912 | 79 | 261 | 4.3 | 5.2 | 0.00 | 0.27 | 0.27 | 77 | 1015.1 |
| 20260903171407 | 79 | 252 | 0.9 | 1.7 | 0.00 | 0.27 | 0.27 | 78 | 1015.1 |
| 20260903170901 | 79 | 283 | 1.7 | 2.6 | 0.00 | 0.27 | 0.27 | 78 | 1015.0 |
| 20260903170356 | 79 | 221 | 1.7 | 1.7 | 0.00 | 0.27 | 0.27 | 77 | 1015.3 |
| 20260903165855 | 80 | 206 | 0.9 | 0.9 | 0.00 | 0.27 | 0.27 | 78 | 1015.3 |
| 20260903165349 | 80 | 199 | 0.9 | 0.9 | 0.00 | 0.27 | 0.27 | 78 | 1015.0 |
| 20260903164844 | 78 | 280 | 1.7 | 1.7 | 0.00 | 0.27 | 0.27 | 79 | 1015.1 |
| 20260903164339 | 78 | 315 | 1.7 | 1.7 | 0.00 | 0.27 | 0.27 | 79 | 1015.2 |
| 20260903163838 | 78 | 257 | 1.7 | 1.7 | 0.00 | 0.27 | 0.27 | 80 | 1015.2 |
| 20260903163335 | 77 | 291 | 4.3 | 5.2 | 0.00 | 0.27 | 0.27 | 81 | 1015.4 |
| 20260903162831 | 78 | 288 | 2.6 | 2.6 | 0.00 | 0.27 | 0.27 | 81 | 1015.2 |
| 20260903162327 | 79 | 294 | 2.6 | 4.3 | 0.00 | 0.27 | 0.27 | 79 | 1015.5 |
| 20260903161823 | 78 | 226 | 2.6 | 4.3 | 0.00 | 0.27 | 0.27 | 82 | 1015.6 |
| 20260903161318 | 78 | 231 | 0.9 | 1.7 | 0.00 | 0.27 | 0.27 | 81 | 1015.6 |
| 20260903160814 | 79 | 206 | 1.7 | 1.7 | 0.00 | 0.27 | 0.27 | 82 | 1015.6 |
| 20260903160312 | 79 | 194 | 0.9 | 0.9 | 0.00 | 0.27 | 0.27 | 82 | 1015.8 |
| 20260903155811 | 78 | 194 | 1.7 | 1.7 | 0.00 | 0.27 | 0.27 | 82 | 1015.7 |
| 20260903155307 | 77 | 187 | 1.7 | 1.7 | 0.00 | 0.27 | 0.27 | 84 | 1015.9 |
| 20260903154801 | 77 | 210 | 2.6 | 2.6 | 0.00 | 0.27 | 0.27 | 85 | 1015.9 |
| 20260903154258 | 76 | 213 | 0.9 | 0.9 | 0.00 | 0.27 | 0.27 | 85 | 1016.2 |
| 20260903153753 | 76 | 189 | 0.0 | 0.9 | 0.00 | 0.27 | 0.27 | 88 | 1016.0 |
| 20260903153249 | 75 | 217 | 1.7 | 1.7 | 0.00 | 0.27 | 0.27 | 89 | 1016.2 |
| 20260903152745 | 74 | 186 | 0.0 | 0.9 | 0.00 | 0.27 | 0.27 | 90 | 1016.1 |
| 20260903152241 | 74 | 168 | 0.0 | 0.0 | 0.00 | 0.27 | 0.27 | 90 | 1016.1 |
| 20260903151740 | 74 | 263 | 1.7 | 1.7 | 0.00 | 0.27 | 0.27 | 90 | 1016.2 |
| 20260903151236 | 74 | 192 | 0.0 | 0.9 | 0.00 | 0.27 | 0.27 | 90 | 1016.1 |
| 20260903150731 | 73 | 199 | 0.9 | 1.7 | 0.00 | 0.27 | 0.27 | 90 | 1016.0 |
| 20260903150225 | 73 | 209 | 0.9 | 1.7 | 0.00 | 0.27 | 0.27 | 90 | 1016.4 |
| 20260903145725 | 74 | 254 | 1.7 | 2.6 | 0.00 | 0.27 | 0.27 | 90 | 1016.1 |
| 20260903145221 | 75 | 169 | 0.0 | 0.0 | 0.00 | 0.27 | 0.27 | 91 | 1015.8 |
| 20260903144719 | 74 | 181 | 0.0 | 0.0 | 0.00 | 0.27 | 0.27 | 90 | 1015.9 |
| 20260903144216 | 74 | 194 | 0.9 | 0.9 | 0.00 | 0.27 | 0.27 | 91 | 1015.9 |
| 20260903143711 | 73 | 227 | 1.7 | 1.7 | 0.00 | 0.27 | 0.27 | 91 | 1016.1 |
| 20260903143207 | 74 | 207 | 0.9 | 0.9 | 0.00 | 0.27 | 0.27 | 92 | 1016.0 |
| 20260903142702 | 73 | 198 | 2.6 | 2.6 | 0.00 | 0.27 | 0.27 | 92 | 1016.0 |
| 20260903142159 | 73 | 197 | 0.9 | 0.9 | 0.00 | 0.27 | 0.27 | 95 | 1016.0 |
| 20260903141654 | 72 | 216 | 2.6 | 2.6 | 0.00 | 0.27 | 0.27 | 95 | 1016.1 |
| 20260903141149 | 71 | 281 | 2.6 | 2.6 | 0.00 | 0.27 | 0.27 | 95 | 1016.1 |
| 20260903140645 | 71 | 192 | 0.0 | 0.9 | 0.00 | 0.27 | 0.27 | 95 | 1015.9 |
| 20260903140140 | 71 | 186 | 1.7 | 1.7 | 0.00 | 0.27 | 0.27 | 95 | 1015.9 |
| 20260903135636 | 71 | 213 | 2.6 | 2.6 | 0.00 | 0.27 | 0.27 | 95 | 1015.9 |
| 20260903135130 | 70 | 179 | 0.9 | 0.9 | 0.00 | 0.27 | 0.27 | 95 | 1015.9 |
| 20260903134629 | 70 | 187 | 0.0 | 0.0 | 0.00 | 0.27 | 0.27 | 95 | 1015.6 |
| 20260903134125 | 70 | 187 | 0.9 | 0.9 | 0.00 | 0.27 | 0.27 | 95 | 1015.5 |
| 20260903133623 | 69 | 167 | 0.0 | 0.0 | 0.00 | 0.27 | 0.27 | 95 | 1015.8 |
| 20260903133119 | 69 | 195 | 0.0 | 0.9 | 0.00 | 0.27 | 0.27 | 95 | 1015.8 |
| 20260903132614 | 70 | 172 | 0.9 | 0.9 | 0.00 | 0.27 | 0.27 | 95 | 1016.0 |
| 20260903132113 | 69 | 176 | 0.0 | 0.0 | 0.00 | 0.27 | 0.27 | 95 | 1015.9 |
| 20260903131608 | 69 | 177 | 0.0 | 0.0 | 0.00 | 0.27 | 0.27 | 95 | 1015.9 |
| 20260903131107 | 68 | 177 | 0.0 | 0.9 | 0.00 | 0.27 | 0.27 | 95 | 1016.1 |
| 20260903130603 | 68 | 356 | 2.6 | 2.6 | 0.00 | 0.27 | 0.27 | 95 | 1016.0 |
| 20260903130056 | 69 | 153 | 0.0 | 0.0 | 0.00 | 0.27 | 0.27 | 95 | 1016.0 |
| 20260903125554 | 68 | 156 | 0.0 | 0.0 | 0.00 | 0.27 | 0.27 | 95 | 1016.2 |
| 20260903113437 | 65 | 167 | 0.0 | 0.0 | 0.00 | 0.27 | 0.27 | 95 | 1015.8 |
| 20260903112932 | 65 | 167 | 0.0 | 0.0 | 0.00 | 0.27 | 0.27 | 95 | 1015.8 |
| 20260903112428 | 65 | 177 | 0.0 | 0.0 | 0.00 | 0.27 | 0.27 | 95 | 1015.8 |
| 20260903111927 | 65 | 130 | 0.0 | 0.0 | 0.00 | 0.27 | 0.27 | 95 | 1015.7 |
| 20260903111426 | 65 | 158 | 0.0 | 0.0 | 0.00 | 0.27 | 0.27 | 95 | 1015.6 |
| 20260903110923 | 66 | 164 | 0.0 | 0.0 | 0.00 | 0.27 | 0.27 | 95 | 1015.6 |
| 20260903110419 | 66 | 200 | 0.9 | 1.7 | 0.00 | 0.27 | 0.27 | 95 | 1015.5 |
| 20260903105914 | 66 | 133 | 0.0 | 0.0 | 0.00 | 0.27 | 0.27 | 95 | 1015.6 |
| 20260903105409 | 66 | 151 | 0.0 | 0.0 | 0.00 | 0.27 | 0.27 | 95 | 1015.6 |
| 20260903104908 | 65 | 161 | 0.0 | 0.0 | 0.00 | 0.27 | 0.27 | 95 | 1015.5 |
| 20260903104402 | 65 | 126 | 0.0 | 0.0 | 0.00 | 0.27 | 0.27 | 95 | 1015.6 |
| 20260903103900 | 65 | 139 | 0.0 | 0.0 | 0.00 | 0.27 | 0.27 | 95 | 1015.8 |
| 20260903103355 | 65 | 163 | 0.0 | 0.0 | 0.00 | 0.27 | 0.27 | 95 | 1015.6 |
| 20260903102851 | 65 | 168 | 0.0 | 0.0 | 0.00 | 0.27 | 0.27 | 95 | 1015.5 |
| 20260903102350 | 65 | 135 | 0.0 | 0.0 | 0.00 | 0.27 | 0.27 | 95 | 1015.7 |
| 20260903101845 | 65 | 139 | 0.0 | 0.0 | 0.00 | 0.27 | 0.27 | 95 | 1015.7 |
| 20260903101340 | 65 | 125 | 0.0 | 0.0 | 0.00 | 0.27 | 0.27 | 95 | 1015.5 |
| 20260903100835 | 65 | 137 | 0.0 | 0.9 | 0.00 | 0.27 | 0.27 | 95 | 1015.7 |
| 20260903100329 | 65 | 141 | 0.0 | 0.0 | 0.00 | 0.27 | 0.27 | 95 | 1015.8 |
| 20260903095821 | 65 | 141 | 0.0 | 0.0 | 0.00 | 0.27 | 0.27 | 95 | 1015.8 |
| 20260903095315 | 65 | 138 | 0.0 | 0.0 | 0.00 | 0.27 | 0.27 | 95 | 1015.8 |
| 20260903094811 | 65 | 104 | 0.0 | 0.0 | 0.00 | 0.27 | 0.27 | 95 | 1015.6 |
| 20260903094305 | 65 | 99 | 0.0 | 0.0 | 0.00 | 0.27 | 0.27 | 95 | 1015.6 |
| 20260903093801 | 65 | 137 | 0.0 | 0.0 | 0.00 | 0.27 | 0.27 | 95 | 1015.8 |
| 20260903093255 | 65 | 117 | 0.9 | 0.9 | 0.00 | 0.27 | 0.27 | 95 | 1015.5 |
| 20260903041526 | 67 | 193 | 0.9 | 0.9 | 0.19 | 0.02 | 0.02 | 95 | 1017.6 |
| 20260903041021 | 67 | 193 | 0.9 | 0.9 | 0.19 | 0.02 | 0.02 | 95 | 1017.6 |
| 20260903040520 | 67 | 101 | 0.9 | 0.9 | 0.24 | 0.01 | 0.01 | 95 | 1017.3 |
| 20260903040017 | 67 | 255 | 1.7 | 1.7 | 0.54 | 1.37 | 1.37 | 95 | 1017.6 |
| 20260903035512 | 68 | 209 | 2.6 | 5.2 | 0.42 | 1.33 | 1.33 | 95 | 1018.1 |
| 20260903035008 | 67 | 313 | 3.5 | 4.3 | 0.19 | 1.28 | 1.28 | 95 | 1018.9 |
| 20260903034508 | 67 | 248 | 3.5 | 5.2 | 0.07 | 1.26 | 1.26 | 95 | 1017.9 |
| 20260903034002 | 67 | 61 | 0.0 | 1.7 | 0.05 | 1.25 | 1.25 | 95 | 1016.7 |
| 20260903033458 | 67 | 92 | 0.9 | 1.7 | 0.07 | 1.24 | 1.24 | 95 | 1016.1 |
| 20260903032953 | 67 | 110 | 1.7 | 1.7 | 0.07 | 1.24 | 1.24 | 95 | 1015.8 |
| 20260903032448 | 66 | 113 | 2.6 | 4.3 | 0.05 | 1.23 | 1.23 | 95 | 1016.0 |
| 20260903031943 | 66 | 156 | 0.0 | 0.0 | 0.05 | 1.23 | 1.23 | 95 | 1016.4 |